CW8399 Weather Reports


Display with metric or nautical units.
time (UTC)temp
F
wind
direction
speed
MPH
gust
MPH
rain 1hr
in
rain 24hr
in
rain mn
in
humidity
%
barometer
mb
20260507194522 90 354 3.0 10.0 0.00 0.00 0.00
20260507194014 90 0 5.0 9.0 0.00 0.00 0.00
20260507193514 89 0 3.0 6.0 0.00 0.00 0.00
20260507193019 89 0 2.0 5.0 0.00 0.00 0.00
20260507192518 89 0 1.0 6.0 0.00 0.00 0.00
20260507191015 89 46 1.0 5.0 0.00 0.00 0.00
20260507185505 88 358 4.0 7.0 0.00 0.00 0.00
20260507185026 88 353 4.0 7.0 0.00 0.00 0.00
20260507184519 88 0 1.0 7.0 0.00 0.00 0.00
20260507184018 88 0 2.0 7.0 0.00 0.00 0.00
20260507183001 87 0 2.0 8.0 0.00 0.00 0.00
20260507182005 87 11 3.0 8.0 0.00 0.00 0.00
20260507181528 86 0 4.0 8.0 0.00 0.00 0.00
20260507181018 86 40 2.0 5.0 0.00 0.00 0.00
20260507180520 85 339 2.0 5.0 0.00 0.00 0.00
20260507180003 85 0 0.0 7.0 0.00 0.00 0.00
20260507175505 85 353 5.0 7.0 0.00 0.00 0.00
20260507175024 84 222 0.0 7.0 0.00 0.00 0.00
20260507174517 84 241 2.0 10.0 0.00 0.00 0.00
20260507174000 84 350 5.0 10.0 0.00 0.00 0.00
20260507173005 83 0 1.0 7.0 0.00 0.00 0.00
20260507172011 82 316 4.0 8.0 0.00 0.00 0.00
20260507171005 82 0 4.0 6.0 0.00 0.00 0.00
20260507170505 81 6 4.0 6.0 0.00 0.00 0.00
20260507170007 81 346 2.0 5.0 0.00 0.00 0.00
20260507165508 81 341 2.0 8.0 0.00 0.00 0.00
20260507165011 80 42 3.0 8.0 0.00 0.00 0.00
20260507164502 80 358 2.0 7.0 0.00 0.00 0.00
20260507164006 80 357 4.0 7.0 0.00 0.00 0.00
20260507163507 79 341 5.0 7.0 0.00 0.00 0.00
20260507163009 79 358 1.0 6.0 0.00 0.00 0.00
20260507162508 78 205 2.0 6.0 0.00 0.00 0.00
20260507162012 78 0 3.0 6.0 0.00 0.00 0.00
20260507161007 77 33 1.0 6.0 0.00 0.00 0.00
20260507160507 76 316 3.0 5.0 0.00 0.00 0.00
20260507160009 76 0 1.0 5.0 0.00 0.00 0.00
20260507155511 76 359 4.0 5.0 0.00 0.00 0.00
20260507155011 75 359 1.0 4.0 0.00 0.00 0.00
20260507153509 73 0 1.0 2.0 0.00 0.00 0.00
20260507153011 73 359 0.0 2.0 0.00 0.00 0.00
20260507152511 72 284 0.0 3.0 0.00 0.00 0.00
20260507152016 72 0 0.0 3.0 0.00 0.00 0.00
20260507151508 71 330 0.0 1.0 0.00 0.00 0.00
20260507151007 71 0 0.0 2.0 0.00 0.00 0.00
20260507150506 70 0 0.0 2.0 0.00 0.00 0.00
20260507150007 70 0 0.0 3.0 0.00 0.00 0.00
20260507145509 69 0 1.0 3.0 0.00 0.00 0.00
20260507145012 69 0 1.0 2.0 0.00 0.00 0.00
20260507144503 69 0 0.0 3.0 0.00 0.00 0.00
20260507144005 68 347 1.0 3.0 0.00 0.00 0.00
20260507143506 68 0 0.0 1.0 0.00 0.00 0.00
20260507143005 68 0 0.0 2.0 0.00 0.00 0.00
20260507142505 67 0 1.0 3.0 0.00 0.00 0.00
20260507142008 67 0 0.0 3.0 0.00 0.00 0.00
20260507141007 66 355 0.0 3.0 0.00 0.00 0.00
20260507140507 66 0 0.0 3.0 0.00 0.00 0.00
20260507140007 66 0 1.0 4.0 0.00 0.00 0.00
20260507135508 66 306 1.0 5.0 0.00 0.00 0.00
20260507135012 66 0 0.0 5.0 0.00 0.00 0.00
20260507134505 65 177 0.0 3.0 0.00 0.00 0.00
20260507134003 65 236 1.0 4.0 0.00 0.00 0.00
20260507133504 65 0 0.0 4.0 0.00 0.00 0.00
20260507133003 65 34 1.0 4.0 0.00 0.00 0.00
20260507132501 64 2 0.0 2.0 0.00 0.00 0.00
20260507131523 64 168 0.0 1.0 0.00 0.00 0.00
20260507131014 64 259 0.0 2.0 0.00 0.00 0.00
20260507130515 64 166 0.0 2.0 0.00 0.00 0.00
20260507130014 64 274 0.0 2.0 0.00 0.00 0.00
20260507125519 65 173 0.0 2.0 0.00 0.00 0.00
20260507125020 65 126 0.0 2.0 0.00 0.00 0.00
20260507124012 65 79 0.0 1.0 0.00 0.00 0.00
20260507123512 65 223 0.0 2.0 0.00 0.00 0.00
20260507123012 65 80 0.0 4.0 0.00 0.00 0.00
20260507122014 65 157 2.0 4.0 0.00 0.00 0.00
20260507121503 65 0 0.0 3.0 0.00 0.00 0.00
20260507121002 65 359 0.0 2.0 0.00 0.00 0.00
20260507120502 65 0 0.0 1.0 0.00 0.00 0.00
20260507120002 65 291 0.0 2.0 0.00 0.00 0.00
20260507115502 65 320 0.0 2.0 0.00 0.00 0.00
20260507115003 65 318 0.0 1.0 0.00 0.00 0.00
20260507114016 66 246 0.0 2.0 0.00 0.00 0.00
20260507113500 66 311 0.0 2.0 0.00 0.00 0.00
20260507113001 66 0 0.0 2.0 0.00 0.00 0.00
20260507112016 66 0 0.0 1.0 0.00 0.00 0.00
20260507111500 66 0 0.0 2.0 0.00 0.00 0.00
20260507110514 66 306 1.0 2.0 0.00 0.00 0.00
20260507110014 66 0 1.0 2.0 0.00 0.00 0.00
20260507105515 66 0 0.0 2.0 0.00 0.00 0.00
20260507105007 66 235 0.0 2.0 0.00 0.00 0.00
20260507104509 67 255 0.0 2.0 0.00 0.00 0.00
20260507103511 67 242 0.0 2.0 0.00 0.00 0.00
20260507103012 68 0 0.0 2.0 0.00 0.00 0.00
20260507102513 68 356 0.0 1.0 0.00 0.00 0.00
20260507102016 68 0 0.0 1.0 0.00 0.00 0.00
20260507101507 68 0 0.0 3.0 0.00 0.00 0.00
20260507101009 68 0 0.0 3.0 0.00 0.00 0.00
20260507100509 69 0 0.0 2.0 0.00 0.00 0.00
20260507100011 69 354 0.0 1.0 0.00 0.00 0.00
20260507095016 69 0 1.0 3.0 0.00 0.00 0.00
20260507094506 69 187 0.0 4.0 0.00 0.00 0.00
20260507094004 69 330 2.0 4.0 0.00 0.00 0.00
20260507093504 69 126 1.0 4.0 0.00 0.00 0.00
20260507093003 69 340 1.0 4.0 0.00 0.00 0.00
20260507092525 69 353 1.0 4.0 0.00 0.00 0.00
20260507091006 69 0 0.0 1.0 0.00 0.00 0.00
20260507090508 69 0 0.0 1.0 0.00 0.00 0.00
20260507090007 70 0 0.0 1.0 0.00 0.00 0.00
20260507085505 70 0 0.0 1.0 0.00 0.00 0.00
20260507085011 70 314 0.0 1.0 0.00 0.00 0.00
20260507084502 70 284 0.0 0.0 0.00 0.00 0.00
20260507084003 71 241 0.0 4.0 0.00 0.00 0.00
20260507082508 71 343 0.0 2.0 0.00 0.00 0.00
20260507082001 71 293 0.0 5.0 0.00 0.00 0.00
20260507081504 71 156 0.0 5.0 0.00 0.00 0.00
20260507081001 72 357 1.0 3.0 0.00 0.00 0.00
20260507080503 72 0 0.0 6.0 0.00 0.00 0.00
20260507080004 72 0 1.0 7.0 0.00 0.00 0.00
20260507075527 71 333 3.0 7.0 0.00 0.00 0.00
20260507074958 71 359 3.0 6.0 0.00 0.00 0.00
20260507074002 71 15 2.0 7.0 0.00 0.00 0.00
20260507072507 71 152 0.0 0.0 0.00 0.00 0.00
20260507071507 71 149 0.0 2.0 0.00 0.00 0.00
20260507070511 72 179 0.0 2.0 0.00 0.00 0.00
20260507070012 72 46 0.0 2.0 0.00 0.00 0.00
20260507065510 72 43 0.0 2.0 0.00 0.00 0.00
20260507065013 72 44 0.0 2.0 0.00 0.00 0.00
20260507064502 72 44 1.0 2.0 0.00 0.00 0.00
20260507064004 72 45 0.0 2.0 0.00 0.00 0.00
20260507063505 72 44 0.0 1.0 0.00 0.00 0.00
20260507063004 72 44 0.0 1.0 0.00 0.00 0.00
20260507062506 72 45 0.0 1.0 0.00 0.00 0.00
20260507062027 73 44 0.0 1.0 0.00 0.00 0.00
20260507061517 73 44 0.0 1.0 0.00 0.00 0.00
20260507061017 73 45 0.0 1.0 0.00 0.00 0.00
20260507060515 73 45 0.0 1.0 0.00 0.00 0.00
20260507055958 73 44 0.0 2.0 0.00 0.00 0.00
20260507055500 73 44 1.0 2.0 0.00 0.00 0.00
20260507055022 74 45 1.0 2.0 0.00 0.00 0.00
20260507054511 74 46 0.0 2.0 0.00 0.00 0.00
20260507054010 74 344 1.0 2.0 0.00 0.00 0.00
20260507053014 74 0 1.0 2.0 0.00 0.00 0.00
20260507052515 74 0 0.0 0.0 0.00 0.00 0.00
20260507052020 75 0 0.0 2.0 0.00 0.00 0.00
20260507051516 75 0 0.0 2.0 0.00 0.00 0.00
20260507051015 75 0 0.0 0.0 0.00 0.00 0.00
20260507050516 75 0 0.0 2.0 0.00 0.00 0.00
20260507050016 76 0 1.0 2.0 0.00 0.00 0.00
20260507045500 76 0 1.0 2.0 0.00 0.00 0.00
20260507045003 76 353 1.0 3.0 0.00 0.00 0.00
20260507044525 76 213 2.0 4.0 0.00 0.00 0.00
20260507043501 76 0 2.0 3.0 0.00 0.00 0.00
20260507043003 76 0 2.0 2.0 0.00 0.00 0.00
20260507042009 77 0 0.0 0.0 0.00 0.00 0.00
20260507041529 77 0 0.0 0.0 0.00 0.00 0.00
20260507041000 77 0 0.0 0.0 0.00 0.00 0.00
20260507040501 77 0 0.0 0.0 0.00 0.00 0.00
20260507040002 78 0 0.0 0.0 0.00 0.00 0.00
20260507035502 78 0 0.0 0.0 0.00 0.00 0.00
20260507035023 78 0 0.0 0.0 0.00 0.00 0.00
20260507034516 78 0 0.0 1.0 0.00 0.00 0.00
20260507034014 78 0 0.0 1.0 0.00 0.00 0.00
20260507033500 79 0 0.0 1.0 0.00 0.00 0.00
20260507032506 79 0 0.0 0.0 0.00 0.00 0.00
20260507032028 80 0 0.0 1.0 0.00 0.00 0.00
20260507031500 80 0 0.0 1.0 0.00 0.00 0.00
20260507030503 80 0 1.0 2.0 0.00 0.00 0.00
20260507030001 81 0 0.0 2.0 0.00 0.00 0.00
20260507025503 81 0 0.0 2.0 0.00 0.00 0.00
20260507025003 82 0 0.0 1.0 0.00 0.00 0.00
20260507023959 83 0 0.0 3.0 0.00 0.00 0.00
20260507023501 83 0 1.0 3.0 0.00 0.00 0.00
20260507023001 83 0 1.0 3.0 0.00 0.00 0.00
20260507022504 84 0 0.0 4.0 0.00 0.00 0.00
20260507022008 84 0 0.0 4.0 0.00 0.00 0.00
20260507021019 85 0 1.0 5.0 0.00 0.00 0.00
20260507020458 85 337 2.0 6.0 0.00 0.00 0.00
20260507015507 86 346 5.0 7.0 0.00 0.00 0.00
20260507015009 86 0 3.0 7.0 0.00 0.00 0.00
20260507014501 86 0 3.0 5.0 0.00 0.00 0.00
20260507013508 87 0 0.0 5.0 0.00 0.00 0.00
20260507013009 87 351 4.0 5.0 0.00 0.00 0.00
20260507012016 88 188 0.0 8.0 0.00 0.00 0.00
20260507011507 88 0 4.0 8.0 0.00 0.00 0.00
20260507011009 88 0 3.0 8.0 0.00 0.00 0.00
20260507010510 88 0 3.0 8.0 0.00 0.00 0.00
20260507010011 88 355 6.0 8.0 0.00 0.00 0.00
20260507005518 88 13 4.0 7.0 0.00 0.00 0.00
20260507005019 88 321 2.0 6.0 0.00 0.00 0.00
20260507004511 88 0 2.0 8.0 0.00 0.00 0.00
20260507004011 88 357 5.0 8.0 0.00 0.00 0.00
20260507003513 88 341 5.0 10.0 0.00 0.00 0.00
20260507003013 88 0 6.0 10.0 0.00 0.00 0.00
20260507002515 88 352 3.0 10.0 0.00 0.00 0.00
20260507001512 88 0 5.0 8.0 0.00 0.00 0.00
20260507001017 88 357 6.0 9.0 0.00 0.00 0.00
20260507000019 88 355 4.0 9.0 0.00 0.00 0.00
20260506235519 88 342 4.0 6.0 0.00 0.00 0.00
20260506234512 88 355 2.0 6.0 0.00 0.00 0.00
20260506234013 88 338 3.0 6.0 0.00 0.00 0.00
20260506233519 88 302 2.0 7.0 0.00 0.00 0.00
20260506232959 88 0 0.0 9.0 0.00 0.00 0.00
20260506232501 88 0 1.0 9.0 0.00 0.00 0.00
20260506232023 88 349 2.0 5.0 0.00 0.00 0.00
20260506231001 88 355 1.0 6.0 0.00 0.00 0.00
20260506230004 88 0 3.0 8.0 0.00 0.00 0.00
20260506225505 88 0 3.0 7.0 0.00 0.00 0.00
20260506225005 88 345 5.0 7.0 0.00 0.00 0.00
20260506224527 88 345 5.0 12.0 0.00 0.00 0.00
20260506224020 88 0 6.0 12.0 0.00 0.00 0.00
20260506223003 87 17 4.0 9.0 0.00 0.00 0.00
20260506222505 87 335 5.0 9.0 0.00 0.00 0.00
20260506221504 87 355 5.0 8.0 0.00 0.00 0.00
20260506221002 87 342 4.0 8.0 0.00 0.00 0.00
20260506220008 87 0 4.0 7.0 0.00 0.00 0.00
20260506215014 87 0 1.0 9.0 0.00 0.00 0.00
20260506214010 87 0 2.0 12.0 0.00 0.00 0.00
20260506213511 87 92 4.0 8.0 0.00 0.00 0.00
20260506213010 87 9 0.0 9.0 0.00 0.00 0.00
20260506212511 87 343 5.0 9.0 0.00 0.00 0.00
20260506212013 87 0 4.0 11.0 0.00 0.00 0.00
20260506210015 87 353 10.0 23.0 0.00 0.00 0.00
20260506205515 86 317 0.0 7.0 0.00 0.00 0.00
20260506204011 86 0 5.0 12.0 0.00 0.00 0.00
20260506203512 85 359 5.0 11.0 0.00 0.00 0.00
20260506203016 85 341 5.0 11.0 0.00 0.00 0.00
20260506202517 85 0 1.0 7.0 0.00 0.00 0.00
20260506202018 85 312 3.0 9.0 0.00 0.00 0.00
20260506201011 85 0 1.0 7.0 0.00 0.00 0.00
20260506200016 85 356 4.0 8.0 0.00 0.00 0.00
20260506195459 85 353 3.0 8.0 0.00 0.00 0.00
20260506195023 85 346 5.0 8.0 0.00 0.00 0.00